Overview Statistics Trail Chart Weather Telemetry Raw packets
 

This is the latest recevied weather packets stored in our database for station/object KG5MMT-15. If no packets are shown the sender has not sent any weather packets the latest 10 day(s).

<< 28 29 30 31 32 33 34 >>
Time Temp. Humidity Pressure Rain* Wind** Luminosity Snow
1788504763 22.22° C 41% 0 hPa 0 mm - - -
1788504463 22.78° C 41% 0 hPa 0 mm - - -
1788504163 22.78° C 40% 0 hPa 0 mm - - -
1788503863 22.78° C 40% 0 hPa 0 mm - - -
1788503563 22.78° C 39% 0 hPa 0 mm - - -
1788503263 22.78° C 39% 0 hPa 0 mm - - -
1788502963 22.78° C 38% 0 hPa 0 mm - - -
1788502663 22.78° C 39% 0 hPa 0 mm - - -
1788502363 22.78° C 41% 0 hPa 0 mm - - -
1788502063 22.22° C 43% 0 hPa 0 mm - - -
1788501763 21.67° C 46% 0 hPa 0 mm - - -
1788501463 20.56° C 49% 0 hPa 0 mm - - -
1788501163 20° C 53% 0 hPa 0 mm - - -
1788500863 19.44° C 55% 0 hPa 0 mm - - -
1788500563 19.44° C 57% 0 hPa 0 mm - - -
1788500263 18.89° C 56% 0 hPa 0 mm - - -
1788499963 19.44° C 57% 0 hPa 0 mm - - -
1788499663 19.44° C 59% 0 hPa 0 mm - - -
1788499363 19.44° C 57% 0 hPa 0 mm - - -
1788499063 19.44° C 56% 0 hPa 0 mm - - -
1788498763 19.44° C 56% 0 hPa 0 mm - - -
1788498463 19.44° C 53% 0 hPa 0 mm - - -
1788498163 19.44° C 54% 0 hPa 0 mm - - -
1788497863 19.44° C 54% 0 hPa 0 mm - - -
1788497563 19.44° C 53% 0 hPa 0 mm - - -

* Rain latest hour (hover to see other rain measurements)
** Current wind speed in m/s (hover to see current wind gust speed)